Year,Month,Day,Hour,Minute,Value (Times are PST for temperature in C)
2019,03,08,00,00,2.00
2019,03,08,00,01,2.00
2019,03,08,00,02,2.00
2019,03,08,00,03,1.90
2019,03,08,00,04,1.90
2019,03,08,00,05,1.90
2019,03,08,00,06,1.90
2019,03,08,00,07,1.90
2019,03,08,00,08,1.90
2019,03,08,00,09,1.90
2019,03,08,00,10,1.90
2019,03,08,00,11,1.90
2019,03,08,00,12,1.80
2019,03,08,00,13,1.80
2019,03,08,00,14,1.80
2019,03,08,00,15,1.70
2019,03,08,00,16,1.70
2019,03,08,00,17,1.70
2019,03,08,00,18,1.70
2019,03,08,00,19,1.70
2019,03,08,00,20,1.70
2019,03,08,00,21,1.70
2019,03,08,00,22,1.60
2019,03,08,00,23,1.60
2019,03,08,00,24,1.60
2019,03,08,00,25,1.60
2019,03,08,00,26,1.50
2019,03,08,00,27,1.50
2019,03,08,00,28,1.50
2019,03,08,00,29,1.50
2019,03,08,00,30,1.50
2019,03,08,00,31,1.50
2019,03,08,00,32,1.50
2019,03,08,00,33,1.50
2019,03,08,00,34,1.50
2019,03,08,00,35,1.50
2019,03,08,00,36,1.60
2019,03,08,00,37,1.60
2019,03,08,00,38,1.60
2019,03,08,00,39,1.60
2019,03,08,00,40,1.60
2019,03,08,00,41,1.70
2019,03,08,00,42,1.70
2019,03,08,00,43,1.70
2019,03,08,00,44,1.70
2019,03,08,00,45,1.80
2019,03,08,00,46,1.80
2019,03,08,00,47,1.80
2019,03,08,00,48,1.80
2019,03,08,00,49,1.80
2019,03,08,00,50,1.80
2019,03,08,00,51,1.80
2019,03,08,00,52,1.70
2019,03,08,00,53,1.70
2019,03,08,00,54,1.70
2019,03,08,00,55,1.70
2019,03,08,00,56,1.70
2019,03,08,00,57,1.60
2019,03,08,00,58,1.60
2019,03,08,00,59,1.60
2019,03,08,01,00,1.50
2019,03,08,01,01,1.50
2019,03,08,01,02,1.40
2019,03,08,01,03,1.40
2019,03,08,01,04,1.40
2019,03,08,01,05,1.30
2019,03,08,01,06,1.30
2019,03,08,01,07,1.20
2019,03,08,01,08,1.10
2019,03,08,01,09,1.00
2019,03,08,01,10,0.90
2019,03,08,01,11,0.80
2019,03,08,01,12,0.80
2019,03,08,01,13,0.70
2019,03,08,01,14,0.70
2019,03,08,01,15,0.60
2019,03,08,01,16,0.60
2019,03,08,01,17,0.60
2019,03,08,01,18,0.50
2019,03,08,01,19,0.50
2019,03,08,01,20,0.50
2019,03,08,01,21,0.50
2019,03,08,01,22,0.50
2019,03,08,01,23,0.50
2019,03,08,01,24,0.60
2019,03,08,01,25,0.60
2019,03,08,01,26,0.70
2019,03,08,01,27,0.70
2019,03,08,01,28,0.80
2019,03,08,01,29,0.80
2019,03,08,01,30,0.80
2019,03,08,01,31,0.90
2019,03,08,01,32,0.90
2019,03,08,01,33,0.90
2019,03,08,01,34,0.90
2019,03,08,01,35,0.90
2019,03,08,01,36,0.80
2019,03,08,01,37,0.80
2019,03,08,01,38,0.80
2019,03,08,01,39,0.70
2019,03,08,01,40,0.70
2019,03,08,01,41,0.60
2019,03,08,01,42,0.60
2019,03,08,01,43,0.60
2019,03,08,01,44,0.60
2019,03,08,01,45,0.60
2019,03,08,01,46,0.60
2019,03,08,01,47,0.70
2019,03,08,01,48,0.70
2019,03,08,01,49,0.70
2019,03,08,01,50,0.70
2019,03,08,01,51,0.80
2019,03,08,01,52,0.80
2019,03,08,01,53,0.90
2019,03,08,01,54,0.90
2019,03,08,01,55,1.00
2019,03,08,01,56,1.00
2019,03,08,01,57,1.10
2019,03,08,01,58,1.10
2019,03,08,01,59,1.20
2019,03,08,02,00,1.20
2019,03,08,02,01,1.20
2019,03,08,02,02,1.20
2019,03,08,02,03,1.20
2019,03,08,02,04,1.20
2019,03,08,02,05,1.20
2019,03,08,02,06,1.20
2019,03,08,02,07,1.10
2019,03,08,02,08,1.10
2019,03,08,02,09,1.10
2019,03,08,02,10,1.10
2019,03,08,02,11,1.10
2019,03,08,02,12,1.10
2019,03,08,02,13,1.20
2019,03,08,02,14,1.20
2019,03,08,02,15,1.20
2019,03,08,02,16,1.20
2019,03,08,02,17,1.30
2019,03,08,02,18,1.30
2019,03,08,02,19,1.30
2019,03,08,02,20,1.40
2019,03,08,02,21,1.40
2019,03,08,02,22,1.40
2019,03,08,02,23,1.50
2019,03,08,02,24,1.50
2019,03,08,02,25,1.50
2019,03,08,02,26,1.50
2019,03,08,02,27,1.50
2019,03,08,02,28,1.40
2019,03,08,02,29,1.40
2019,03,08,02,30,1.40
2019,03,08,02,31,1.40
2019,03,08,02,32,1.40
2019,03,08,02,33,1.30
2019,03,08,02,34,1.30
2019,03,08,02,35,1.20
2019,03,08,02,36,1.10
2019,03,08,02,37,1.00
2019,03,08,02,38,1.00
2019,03,08,02,39,0.90
2019,03,08,02,40,0.80
2019,03,08,02,41,0.70
2019,03,08,02,42,0.60
2019,03,08,02,43,0.60
2019,03,08,02,44,0.50
2019,03,08,02,45,0.50
2019,03,08,02,46,0.50
2019,03,08,02,47,0.60
2019,03,08,02,48,0.60
2019,03,08,02,49,0.60
2019,03,08,02,50,0.70
2019,03,08,02,51,0.70
2019,03,08,02,52,0.80
2019,03,08,02,53,0.80
2019,03,08,02,54,0.80
2019,03,08,02,55,0.80
2019,03,08,02,56,0.80
2019,03,08,02,57,0.90
2019,03,08,02,58,0.90
2019,03,08,02,59,0.90
2019,03,08,03,00,0.90
2019,03,08,03,01,0.90
2019,03,08,03,02,0.90
2019,03,08,03,03,0.90
2019,03,08,03,04,0.90
2019,03,08,03,05,0.90
2019,03,08,03,06,0.90
2019,03,08,03,07,0.90
2019,03,08,03,08,0.90
2019,03,08,03,09,0.90
2019,03,08,03,10,0.90
2019,03,08,03,11,0.90
2019,03,08,03,12,0.90
2019,03,08,03,13,0.90
2019,03,08,03,14,0.90
2019,03,08,03,15,0.90
2019,03,08,03,16,0.90
2019,03,08,03,17,0.90
2019,03,08,03,18,0.90
2019,03,08,03,19,0.90
2019,03,08,03,20,0.90
2019,03,08,03,21,0.90
2019,03,08,03,22,0.90
2019,03,08,03,23,0.90
2019,03,08,03,24,0.90
2019,03,08,03,25,0.90
2019,03,08,03,26,0.90
2019,03,08,03,27,0.90
2019,03,08,03,28,0.90
2019,03,08,03,29,0.90
2019,03,08,03,30,0.90
2019,03,08,03,31,0.90
2019,03,08,03,32,0.90
2019,03,08,03,33,0.90
2019,03,08,03,34,0.90
2019,03,08,03,35,0.90
2019,03,08,03,36,0.90
2019,03,08,03,37,0.90
2019,03,08,03,38,0.90
2019,03,08,03,39,0.80
2019,03,08,03,40,0.80
2019,03,08,03,41,0.70
2019,03,08,03,42,0.60
2019,03,08,03,43,0.60
2019,03,08,03,44,0.60
2019,03,08,03,45,0.60
2019,03,08,03,46,0.70
2019,03,08,03,47,0.70
2019,03,08,03,48,0.70
2019,03,08,03,49,0.80
2019,03,08,03,50,0.80
2019,03,08,03,51,0.90
2019,03,08,03,52,0.90
2019,03,08,03,53,0.90
2019,03,08,03,54,1.00
2019,03,08,03,55,1.00
2019,03,08,03,56,1.10
2019,03,08,03,57,1.10
2019,03,08,03,58,1.10
2019,03,08,03,59,1.20
2019,03,08,04,00,1.20
2019,03,08,04,01,1.20
2019,03,08,04,02,1.20
2019,03,08,04,03,1.20
2019,03,08,04,04,1.20
2019,03,08,04,05,1.20
2019,03,08,04,06,1.20
2019,03,08,04,07,1.20
2019,03,08,04,08,1.20
2019,03,08,04,09,1.20
2019,03,08,04,10,1.20
2019,03,08,04,11,1.20
2019,03,08,04,12,1.20
2019,03,08,04,13,1.30
2019,03,08,04,14,1.30
2019,03,08,04,15,1.30
2019,03,08,04,16,1.30
2019,03,08,04,17,1.30
2019,03,08,04,18,1.30
2019,03,08,04,19,1.20
2019,03,08,04,20,1.20
2019,03,08,04,21,1.20
2019,03,08,04,22,1.20
2019,03,08,04,23,1.20
2019,03,08,04,24,1.20
2019,03,08,04,25,1.20
2019,03,08,04,26,1.30
2019,03,08,04,27,1.30
2019,03,08,04,28,1.30
2019,03,08,04,29,1.30
2019,03,08,04,30,1.30
2019,03,08,04,31,1.30
2019,03,08,04,32,1.30
2019,03,08,04,33,1.30
2019,03,08,04,34,1.30
2019,03,08,04,35,1.30
2019,03,08,04,36,1.40
2019,03,08,04,37,1.40
2019,03,08,04,38,1.40
2019,03,08,04,39,1.40
2019,03,08,04,40,1.40
2019,03,08,04,41,1.40
2019,03,08,04,42,1.40
2019,03,08,04,43,1.30
2019,03,08,04,44,1.30
2019,03,08,04,45,1.30
2019,03,08,04,46,1.30
2019,03,08,04,47,1.30
2019,03,08,04,48,1.30
2019,03,08,04,49,1.20
2019,03,08,04,50,1.20
2019,03,08,04,51,1.20
2019,03,08,04,52,1.10
2019,03,08,04,53,1.10
2019,03,08,04,54,1.00
2019,03,08,04,55,1.00
2019,03,08,04,56,0.90
2019,03,08,04,57,0.90
2019,03,08,04,58,0.90
2019,03,08,04,59,0.90
2019,03,08,05,00,0.90
2019,03,08,05,01,0.90
2019,03,08,05,02,0.80
2019,03,08,05,03,0.80
2019,03,08,05,04,0.80
2019,03,08,05,05,0.80
2019,03,08,05,06,0.80
2019,03,08,05,07,0.80
2019,03,08,05,08,0.70
2019,03,08,05,09,0.70
2019,03,08,05,10,0.70
2019,03,08,05,11,0.70
2019,03,08,05,12,0.70
2019,03,08,05,13,0.70
2019,03,08,05,14,0.70
2019,03,08,05,15,0.70
2019,03,08,05,16,0.70
2019,03,08,05,17,0.70
2019,03,08,05,18,0.60
2019,03,08,05,19,0.60
2019,03,08,05,20,0.60
2019,03,08,05,21,0.60
2019,03,08,05,22,0.70
2019,03,08,05,23,0.70
2019,03,08,05,24,0.70
2019,03,08,05,25,0.70
2019,03,08,05,26,0.80
2019,03,08,05,27,0.80
2019,03,08,05,28,0.80
2019,03,08,05,29,0.80
2019,03,08,05,30,0.80
2019,03,08,05,31,0.80
2019,03,08,05,32,0.80
2019,03,08,05,33,0.80
2019,03,08,05,34,0.80
2019,03,08,05,35,0.80
2019,03,08,05,36,0.70
2019,03,08,05,37,0.70
2019,03,08,05,38,0.70
2019,03,08,05,39,0.70
2019,03,08,05,40,0.70
2019,03,08,05,41,0.70
2019,03,08,05,42,0.70
2019,03,08,05,43,0.70
2019,03,08,05,44,0.70
2019,03,08,05,45,0.70
2019,03,08,05,46,0.70
2019,03,08,05,47,0.70
2019,03,08,05,48,0.70
2019,03,08,05,49,0.70
2019,03,08,05,50,0.70
2019,03,08,05,51,0.70
2019,03,08,05,52,0.70
2019,03,08,05,53,0.70
2019,03,08,05,54,0.70
2019,03,08,05,55,0.70
2019,03,08,05,56,0.80
2019,03,08,05,57,0.80
2019,03,08,05,58,0.80
2019,03,08,05,59,0.90
2019,03,08,06,00,0.90
2019,03,08,06,01,1.00
2019,03,08,06,02,1.00
2019,03,08,06,03,1.00
2019,03,08,06,04,1.10
2019,03,08,06,05,1.10
2019,03,08,06,06,1.10
2019,03,08,06,07,1.10
2019,03,08,06,08,1.20
2019,03,08,06,09,1.20
2019,03,08,06,10,1.20
2019,03,08,06,11,1.20
2019,03,08,06,12,1.30
2019,03,08,06,13,1.30
2019,03,08,06,14,1.30
2019,03,08,06,15,1.30
2019,03,08,06,16,1.40
2019,03,08,06,17,1.40
2019,03,08,06,18,1.40
2019,03,08,06,19,1.40
2019,03,08,06,20,1.40
2019,03,08,06,21,1.50
2019,03,08,06,22,1.50
2019,03,08,06,23,1.50
2019,03,08,06,24,1.50
2019,03,08,06,25,1.50
2019,03,08,06,26,1.50
2019,03,08,06,27,1.50
2019,03,08,06,28,1.50
2019,03,08,06,29,1.50
2019,03,08,06,30,1.50
2019,03,08,06,31,1.50
2019,03,08,06,32,1.50
2019,03,08,06,33,1.50
2019,03,08,06,34,1.50
2019,03,08,06,35,1.50
2019,03,08,06,36,1.40
2019,03,08,06,37,1.40
2019,03,08,06,38,1.40
2019,03,08,06,39,1.40
2019,03,08,06,40,1.30
2019,03,08,06,41,1.30
2019,03,08,06,42,1.30
2019,03,08,06,43,1.20
2019,03,08,06,44,1.20
2019,03,08,06,45,1.20
2019,03,08,06,46,1.20
2019,03,08,06,47,1.20
2019,03,08,06,48,1.20
2019,03,08,06,49,1.20
2019,03,08,06,50,1.20
2019,03,08,06,51,1.20
2019,03,08,06,52,1.20
2019,03,08,06,53,1.20
2019,03,08,06,54,1.20
2019,03,08,06,55,1.20
2019,03,08,06,56,1.20
2019,03,08,06,57,1.30
2019,03,08,06,58,1.30
2019,03,08,06,59,1.30
2019,03,08,07,00,1.30
2019,03,08,07,01,1.30
2019,03,08,07,02,1.30
2019,03,08,07,03,1.30
2019,03,08,07,04,1.30
2019,03,08,07,05,1.30
2019,03,08,07,06,1.30
2019,03,08,07,07,1.30
2019,03,08,07,08,1.30
2019,03,08,07,09,1.30
2019,03,08,07,10,1.30
2019,03,08,07,11,1.30
2019,03,08,07,12,1.30
2019,03,08,07,13,1.30
2019,03,08,07,14,1.30
2019,03,08,07,15,1.30
2019,03,08,07,16,1.30
2019,03,08,07,17,1.20
2019,03,08,07,18,1.20
2019,03,08,07,19,1.20
2019,03,08,07,20,1.20
2019,03,08,07,21,1.20
2019,03,08,07,22,1.20
2019,03,08,07,23,1.20
2019,03,08,07,24,1.20
2019,03,08,07,25,1.20
2019,03,08,07,26,1.20
2019,03,08,07,27,1.20
2019,03,08,07,28,1.20
2019,03,08,07,29,1.20
2019,03,08,07,30,1.20
2019,03,08,07,31,1.20
2019,03,08,07,32,1.20
2019,03,08,07,33,1.20
2019,03,08,07,34,1.20
2019,03,08,07,35,1.20
2019,03,08,07,36,1.20
2019,03,08,07,37,1.10
2019,03,08,07,38,1.10
2019,03,08,07,39,1.10
2019,03,08,07,40,1.10
2019,03,08,07,41,1.10
2019,03,08,07,42,1.10
2019,03,08,07,43,1.10
2019,03,08,07,44,1.10
2019,03,08,07,45,1.10
2019,03,08,07,46,1.10
2019,03,08,07,47,1.10
2019,03,08,07,48,1.10
2019,03,08,07,49,1.10
2019,03,08,07,50,1.20
2019,03,08,07,51,1.20
2019,03,08,07,52,1.20
2019,03,08,07,53,1.20
2019,03,08,07,54,1.30
2019,03,08,07,55,1.30
2019,03,08,07,56,1.30
2019,03,08,07,57,1.40
2019,03,08,07,58,1.40
2019,03,08,07,59,1.50
2019,03,08,08,00,1.50
2019,03,08,08,01,1.60
2019,03,08,08,02,1.60
2019,03,08,08,03,1.60
2019,03,08,08,04,1.70
2019,03,08,08,05,1.70
2019,03,08,08,06,1.70
2019,03,08,08,07,1.80
2019,03,08,08,08,1.80
2019,03,08,08,09,1.80
2019,03,08,08,10,1.80
2019,03,08,08,11,1.80
2019,03,08,08,12,1.80
2019,03,08,08,13,1.80
2019,03,08,08,14,1.80
2019,03,08,08,15,1.90
2019,03,08,08,16,1.90
2019,03,08,08,17,1.90
2019,03,08,08,18,1.90
2019,03,08,08,19,1.90
2019,03,08,08,20,1.90
2019,03,08,08,21,1.90
2019,03,08,08,22,1.90
2019,03,08,08,23,1.90
2019,03,08,08,24,2.00
2019,03,08,08,25,2.00
2019,03,08,08,26,2.10
2019,03,08,08,27,2.10
2019,03,08,08,28,2.10
2019,03,08,08,29,2.10
2019,03,08,08,30,2.10
2019,03,08,08,31,2.10
2019,03,08,08,32,2.10
2019,03,08,08,33,2.10
2019,03,08,08,34,2.10
2019,03,08,08,35,2.10
2019,03,08,08,36,2.10
2019,03,08,08,37,2.10
2019,03,08,08,38,2.20
2019,03,08,08,39,2.20
2019,03,08,08,40,2.30
2019,03,08,08,41,2.30
2019,03,08,08,42,2.40
2019,03,08,08,43,2.40
2019,03,08,08,44,2.50
2019,03,08,08,45,2.50
2019,03,08,08,46,2.60
2019,03,08,08,47,2.60
2019,03,08,08,48,2.70
2019,03,08,08,49,2.70
2019,03,08,08,50,2.80
2019,03,08,08,51,2.80
2019,03,08,08,52,2.80
2019,03,08,08,53,2.80
2019,03,08,08,54,2.90
2019,03,08,08,55,2.90
2019,03,08,08,56,3.00
2019,03,08,08,57,3.00
2019,03,08,08,58,3.10
2019,03,08,08,59,3.10
2019,03,08,09,00,3.10
2019,03,08,09,01,3.10
2019,03,08,09,02,3.10
2019,03,08,09,03,3.10
2019,03,08,09,04,3.10
2019,03,08,09,05,3.10
2019,03,08,09,06,3.10
2019,03,08,09,07,3.20
2019,03,08,09,08,3.20
2019,03,08,09,09,3.20
2019,03,08,09,10,3.20
2019,03,08,09,11,3.20
2019,03,08,09,12,3.30
2019,03,08,09,13,3.30
2019,03,08,09,14,3.30
2019,03,08,09,15,3.30
2019,03,08,09,16,3.30
2019,03,08,09,17,3.30
2019,03,08,09,18,3.30
2019,03,08,09,19,3.20
2019,03,08,09,20,3.20
2019,03,08,09,21,3.20
2019,03,08,09,22,3.20
2019,03,08,09,23,3.20
2019,03,08,09,24,3.10
2019,03,08,09,25,3.10
2019,03,08,09,26,3.10
2019,03,08,09,27,3.10
2019,03,08,09,28,3.10
2019,03,08,09,29,3.10
2019,03,08,09,30,3.10
2019,03,08,09,31,3.10
2019,03,08,09,32,3.00
2019,03,08,09,33,3.00
2019,03,08,09,34,2.90
2019,03,08,09,35,2.90
2019,03,08,09,36,2.90
2019,03,08,09,37,2.90
2019,03,08,09,38,2.90
2019,03,08,09,39,2.90
2019,03,08,09,40,2.90
2019,03,08,09,41,2.90
2019,03,08,09,42,2.90
2019,03,08,09,43,2.90
2019,03,08,09,44,2.90
2019,03,08,09,45,2.90
2019,03,08,09,46,2.90
2019,03,08,09,47,2.90
2019,03,08,09,48,2.90
2019,03,08,09,49,2.90
2019,03,08,09,50,2.90
2019,03,08,09,51,2.90
2019,03,08,09,52,2.90
2019,03,08,09,53,3.00
2019,03,08,09,54,3.00
2019,03,08,09,55,3.10
2019,03,08,09,56,3.10
2019,03,08,09,57,3.10
2019,03,08,09,58,3.20
2019,03,08,09,59,3.20
2019,03,08,10,00,3.20
2019,03,08,10,01,3.20
2019,03,08,10,02,3.20
2019,03,08,10,03,3.20
2019,03,08,10,04,3.20
2019,03,08,10,05,3.20
2019,03,08,10,06,3.30
2019,03,08,10,07,3.30
2019,03,08,10,08,3.30
2019,03,08,10,09,3.30
2019,03,08,10,10,3.30
2019,03,08,10,11,3.40
2019,03,08,10,12,3.40
2019,03,08,10,13,3.40
2019,03,08,10,14,3.40
2019,03,08,10,15,3.40
2019,03,08,10,16,3.40
2019,03,08,10,17,3.30
2019,03,08,10,18,3.30
2019,03,08,10,19,3.30
2019,03,08,10,20,3.40
2019,03,08,10,21,3.40
2019,03,08,10,22,3.40
2019,03,08,10,23,3.40
2019,03,08,10,24,3.40
2019,03,08,10,25,3.40
2019,03,08,10,26,3.40
2019,03,08,10,27,3.40
2019,03,08,10,28,3.40
2019,03,08,10,29,3.40
2019,03,08,10,30,3.40
2019,03,08,10,31,3.50
2019,03,08,10,32,3.50
2019,03,08,10,33,3.60
2019,03,08,10,34,3.70
2019,03,08,10,35,3.70
2019,03,08,10,36,3.80
2019,03,08,10,37,3.80
2019,03,08,10,38,3.80
2019,03,08,10,39,3.80
2019,03,08,10,40,3.80
2019,03,08,10,41,3.90
2019,03,08,10,42,3.90
2019,03,08,10,43,3.90
2019,03,08,10,44,3.90
2019,03,08,10,45,3.90
2019,03,08,10,46,3.90
2019,03,08,10,47,3.90
2019,03,08,10,48,3.90
2019,03,08,10,49,3.90
2019,03,08,10,50,3.90
2019,03,08,10,51,3.90
2019,03,08,10,52,3.90
2019,03,08,10,53,3.90
2019,03,08,10,54,3.90
2019,03,08,10,55,3.90
2019,03,08,10,56,3.90
2019,03,08,10,57,3.90
2019,03,08,10,58,3.90
2019,03,08,10,59,3.90
2019,03,08,11,00,3.90
2019,03,08,11,01,3.90
2019,03,08,11,02,3.90
2019,03,08,11,03,3.90
2019,03,08,11,04,3.90
2019,03,08,11,05,3.90
2019,03,08,11,06,3.90
2019,03,08,11,07,3.90
2019,03,08,11,08,3.90
2019,03,08,11,09,3.90
2019,03,08,11,10,4.00
2019,03,08,11,11,4.00
2019,03,08,11,12,3.90
2019,03,08,11,13,3.90
2019,03,08,11,14,3.90
2019,03,08,11,15,3.80
2019,03,08,11,16,3.80
2019,03,08,11,17,3.70
2019,03,08,11,18,3.70
2019,03,08,11,19,3.60
2019,03,08,11,20,3.60
2019,03,08,11,21,3.50
2019,03,08,11,22,3.50
2019,03,08,11,23,3.50
2019,03,08,11,24,3.50
2019,03,08,11,25,3.40
2019,03,08,11,26,3.40
2019,03,08,11,27,3.40
2019,03,08,11,28,3.40
2019,03,08,11,29,3.40
2019,03,08,11,30,3.40
2019,03,08,11,31,3.40
2019,03,08,11,32,3.40
2019,03,08,11,33,3.40
2019,03,08,11,34,3.30
2019,03,08,11,35,3.30
2019,03,08,11,36,3.20
2019,03,08,11,37,3.20
2019,03,08,11,38,3.20
2019,03,08,11,39,3.20
2019,03,08,11,40,3.20
2019,03,08,11,41,3.20
2019,03,08,11,42,3.20
2019,03,08,11,43,3.20
2019,03,08,11,44,3.10
2019,03,08,11,45,3.10
2019,03,08,11,46,3.10
2019,03,08,11,47,3.10
2019,03,08,11,48,3.00
2019,03,08,11,49,3.00
2019,03,08,11,50,3.00
2019,03,08,11,51,2.90
2019,03,08,11,52,2.90
2019,03,08,11,53,2.90
2019,03,08,11,54,2.90
2019,03,08,11,55,2.90
2019,03,08,11,56,2.90
2019,03,08,11,57,3.00
2019,03,08,11,58,3.00
2019,03,08,11,59,3.00
2019,03,08,12,00,3.10
2019,03,08,12,01,3.10
2019,03,08,12,02,3.10
2019,03,08,12,03,3.10
2019,03,08,12,04,3.20
2019,03,08,12,05,3.30
2019,03,08,12,06,3.40
2019,03,08,12,07,3.50
2019,03,08,12,08,3.60
2019,03,08,12,09,3.70
2019,03,08,12,10,3.80
2019,03,08,12,11,3.90
2019,03,08,12,12,4.00
2019,03,08,12,13,4.10
2019,03,08,12,14,4.10
2019,03,08,12,15,4.10
2019,03,08,12,16,4.10
2019,03,08,12,17,4.20
2019,03,08,12,18,4.20
2019,03,08,12,19,4.20
2019,03,08,12,20,4.20
2019,03,08,12,21,4.20
2019,03,08,12,22,4.20
2019,03,08,12,23,4.30
2019,03,08,12,24,4.30
2019,03,08,12,25,4.40
2019,03,08,12,26,4.50
2019,03,08,12,27,4.50
2019,03,08,12,28,4.40
2019,03,08,12,29,4.40
2019,03,08,12,30,4.50
2019,03,08,12,31,4.50
2019,03,08,12,32,4.50
2019,03,08,12,33,4.50
2019,03,08,12,34,4.60
2019,03,08,12,35,4.70
2019,03,08,12,36,4.70
2019,03,08,12,37,4.80
2019,03,08,12,38,4.90
2019,03,08,12,39,5.00
2019,03,08,12,40,5.00
2019,03,08,12,41,5.00
2019,03,08,12,42,5.10
2019,03,08,12,43,5.10
2019,03,08,12,44,5.20
2019,03,08,12,45,5.30
2019,03,08,12,46,5.40
2019,03,08,12,47,5.50
2019,03,08,12,48,5.50
2019,03,08,12,49,5.60
2019,03,08,12,50,5.60
2019,03,08,12,51,5.60
2019,03,08,12,52,5.50
2019,03,08,12,53,5.50
2019,03,08,12,54,5.40
2019,03,08,12,55,5.40
2019,03,08,12,56,5.30
2019,03,08,12,57,5.30
2019,03,08,12,58,5.20
2019,03,08,12,59,5.10
2019,03,08,13,00,5.00
2019,03,08,13,01,4.90
2019,03,08,13,02,4.90
2019,03,08,13,03,4.90
2019,03,08,13,04,4.90
2019,03,08,13,05,4.80
2019,03,08,13,06,4.80
2019,03,08,13,07,4.80
2019,03,08,13,08,4.80
2019,03,08,13,09,4.70
2019,03,08,13,10,4.70
2019,03,08,13,11,4.70
2019,03,08,13,12,4.70
2019,03,08,13,13,4.70
2019,03,08,13,14,4.70
2019,03,08,13,15,4.70
2019,03,08,13,16,4.70
2019,03,08,13,17,4.80
2019,03,08,13,18,4.80
2019,03,08,13,19,4.80
2019,03,08,13,20,4.80
2019,03,08,13,21,4.80
2019,03,08,13,22,4.80
2019,03,08,13,23,4.70
2019,03,08,13,24,4.70
2019,03,08,13,25,4.60
2019,03,08,13,26,4.60
2019,03,08,13,27,4.60
2019,03,08,13,28,4.60
2019,03,08,13,29,4.60
2019,03,08,13,30,4.60
2019,03,08,13,31,4.60
2019,03,08,13,32,4.60
2019,03,08,13,33,4.60
2019,03,08,13,34,4.50
2019,03,08,13,35,4.40
2019,03,08,13,36,4.40
2019,03,08,13,37,4.40
2019,03,08,13,38,4.40
2019,03,08,13,39,4.50
2019,03,08,13,40,4.50
2019,03,08,13,41,4.50
2019,03,08,13,42,4.50
2019,03,08,13,43,4.60
2019,03,08,13,44,4.70
2019,03,08,13,45,4.80
2019,03,08,13,46,4.80
2019,03,08,13,47,4.90
2019,03,08,13,48,5.00
2019,03,08,13,49,5.10
2019,03,08,13,50,5.10
2019,03,08,13,51,5.10
2019,03,08,13,52,5.10
2019,03,08,13,53,5.10
2019,03,08,13,54,5.10
2019,03,08,13,55,5.00
2019,03,08,13,56,4.90
2019,03,08,13,57,4.90
2019,03,08,13,58,4.90
2019,03,08,13,59,4.90
2019,03,08,14,00,5.00
2019,03,08,14,01,5.00
2019,03,08,14,02,5.00
2019,03,08,14,03,5.00
2019,03,08,14,04,5.10
2019,03,08,14,05,5.10
2019,03,08,14,06,5.20
2019,03,08,14,07,5.30
2019,03,08,14,08,5.40
2019,03,08,14,09,5.40
2019,03,08,14,10,5.40
2019,03,08,14,11,5.30
2019,03,08,14,12,5.30
2019,03,08,14,13,5.30
2019,03,08,14,14,5.30
2019,03,08,14,15,5.30
2019,03,08,14,16,5.30
2019,03,08,14,17,5.30
2019,03,08,14,18,5.30
2019,03,08,14,19,5.30
2019,03,08,14,20,5.30
2019,03,08,14,21,5.20
2019,03,08,14,22,5.10
2019,03,08,14,23,5.10
2019,03,08,14,24,5.00
2019,03,08,14,25,5.00
2019,03,08,14,26,5.00
2019,03,08,14,27,4.90
2019,03,08,14,28,4.90
2019,03,08,14,29,4.90
2019,03,08,14,30,4.90
2019,03,08,14,31,4.90
2019,03,08,14,32,4.90
2019,03,08,14,33,4.90
2019,03,08,14,34,5.00
2019,03,08,14,35,5.00
2019,03,08,14,36,5.10
2019,03,08,14,37,5.20
2019,03,08,14,38,5.20
2019,03,08,14,39,5.20
2019,03,08,14,40,5.20
2019,03,08,14,41,5.30
2019,03,08,14,42,5.40
2019,03,08,14,43,5.50
2019,03,08,14,44,5.50
2019,03,08,14,45,5.50
2019,03,08,14,46,5.60
2019,03,08,14,47,5.60
2019,03,08,14,48,5.60
2019,03,08,14,49,5.60
2019,03,08,14,50,5.60
2019,03,08,14,51,5.60
2019,03,08,14,52,5.60
2019,03,08,14,53,5.60
2019,03,08,14,54,5.70
2019,03,08,14,55,5.80
2019,03,08,14,56,5.80
2019,03,08,14,57,5.90
2019,03,08,14,58,6.00
2019,03,08,14,59,6.00
2019,03,08,15,00,6.10
2019,03,08,15,01,6.00
2019,03,08,15,02,6.00
2019,03,08,15,03,6.00
2019,03,08,15,04,6.00
2019,03,08,15,05,6.00
2019,03,08,15,06,6.00
2019,03,08,15,07,6.00
2019,03,08,15,08,6.10
2019,03,08,15,09,6.10
2019,03,08,15,10,6.20
2019,03,08,15,11,6.20
2019,03,08,15,12,6.20
2019,03,08,15,13,6.20
2019,03,08,15,14,6.20
2019,03,08,15,15,6.10
2019,03,08,15,16,6.00
2019,03,08,15,17,6.00
2019,03,08,15,18,5.90
2019,03,08,15,19,5.90
2019,03,08,15,20,5.90
2019,03,08,15,21,5.90
2019,03,08,15,22,5.90
2019,03,08,15,23,6.00
2019,03,08,15,24,6.10
2019,03,08,15,25,6.10
2019,03,08,15,26,6.10
2019,03,08,15,27,6.20
2019,03,08,15,28,6.20
2019,03,08,15,29,6.20
2019,03,08,15,30,6.10
2019,03,08,15,31,6.20
2019,03,08,15,32,6.20
2019,03,08,15,33,6.20
2019,03,08,15,34,6.20
2019,03,08,15,35,6.20
2019,03,08,15,36,6.20
2019,03,08,15,37,6.10
2019,03,08,15,38,6.00
2019,03,08,15,39,5.90
2019,03,08,15,40,5.90
2019,03,08,15,41,5.80
2019,03,08,15,42,5.80
2019,03,08,15,43,5.80
2019,03,08,15,44,5.80
2019,03,08,15,45,5.80
2019,03,08,15,46,5.80
2019,03,08,15,47,5.80
2019,03,08,15,48,5.80
2019,03,08,15,49,5.90
2019,03,08,15,50,5.90
2019,03,08,15,51,5.90
2019,03,08,15,52,5.90
2019,03,08,15,53,5.90
2019,03,08,15,54,5.90
2019,03,08,15,55,5.90
2019,03,08,15,56,5.80
2019,03,08,15,57,5.80
2019,03,08,15,58,5.70
2019,03,08,15,59,5.60
2019,03,08,16,00,5.60
2019,03,08,16,01,5.60
2019,03,08,16,02,5.50
2019,03,08,16,03,5.50
2019,03,08,16,04,5.50
2019,03,08,16,05,5.40
2019,03,08,16,06,5.40
2019,03,08,16,07,5.40
2019,03,08,16,08,5.40
2019,03,08,16,09,5.40
2019,03,08,16,10,5.40
2019,03,08,16,11,5.50
2019,03,08,16,12,5.50
2019,03,08,16,13,5.60
2019,03,08,16,14,5.60
2019,03,08,16,15,5.70
2019,03,08,16,16,5.70
2019,03,08,16,17,5.70
2019,03,08,16,18,5.70
2019,03,08,16,19,5.80
2019,03,08,16,20,5.80
2019,03,08,16,21,5.80
2019,03,08,16,22,5.80
2019,03,08,16,23,5.80
2019,03,08,16,24,5.90
2019,03,08,16,25,5.90
2019,03,08,16,26,6.00
2019,03,08,16,27,6.00
2019,03,08,16,28,6.10
2019,03,08,16,29,6.10
2019,03,08,16,30,6.10
2019,03,08,16,31,6.10
2019,03,08,16,32,6.10
2019,03,08,16,33,6.10
2019,03,08,16,34,6.10
2019,03,08,16,35,6.20
2019,03,08,16,36,6.20
2019,03,08,16,37,6.20
2019,03,08,16,38,6.20
2019,03,08,16,39,6.20
2019,03,08,16,40,6.20
2019,03,08,16,41,6.20
2019,03,08,16,42,6.10
2019,03,08,16,43,6.10
2019,03,08,16,44,6.10
2019,03,08,16,45,6.00
2019,03,08,16,46,6.00
2019,03,08,16,47,6.00
2019,03,08,16,48,5.90
2019,03,08,16,49,6.00
2019,03,08,16,50,6.00
2019,03,08,16,51,6.00
2019,03,08,16,52,6.00
2019,03,08,16,53,6.00
2019,03,08,16,54,6.00
2019,03,08,16,55,6.00
2019,03,08,16,56,6.10
2019,03,08,16,57,6.10
2019,03,08,16,58,6.10
2019,03,08,16,59,6.10
2019,03,08,17,00,6.10
2019,03,08,17,01,6.10
2019,03,08,17,02,6.10
2019,03,08,17,03,6.10
2019,03,08,17,04,6.00
2019,03,08,17,05,6.00
2019,03,08,17,06,5.90
2019,03,08,17,07,6.00
2019,03,08,17,08,6.00
2019,03,08,17,09,6.00
2019,03,08,17,10,6.00
2019,03,08,17,11,6.00
2019,03,08,17,12,6.00
2019,03,08,17,13,6.00
2019,03,08,17,14,5.90
2019,03,08,17,15,5.90
2019,03,08,17,16,5.90
2019,03,08,17,17,5.90
2019,03,08,17,18,5.90
2019,03,08,17,19,5.90
2019,03,08,17,20,5.90
2019,03,08,17,21,5.90
2019,03,08,17,22,5.80
2019,03,08,17,23,5.80
2019,03,08,17,24,5.80
2019,03,08,17,25,5.80
2019,03,08,17,26,5.80
2019,03,08,17,27,5.80
2019,03,08,17,28,5.80
2019,03,08,17,29,5.80
2019,03,08,17,30,5.80
2019,03,08,17,31,5.80
2019,03,08,17,32,5.80
2019,03,08,17,33,5.80
2019,03,08,17,34,5.80
2019,03,08,17,35,5.80
2019,03,08,17,36,5.80
2019,03,08,17,37,5.80
2019,03,08,17,38,5.70
2019,03,08,17,39,5.70
2019,03,08,17,40,5.70
2019,03,08,17,41,5.60
2019,03,08,17,42,5.60
2019,03,08,17,43,5.60
2019,03,08,17,44,5.50
2019,03,08,17,45,5.50
2019,03,08,17,46,5.50
2019,03,08,17,47,5.40
2019,03,08,17,48,5.40
2019,03,08,17,49,5.40
2019,03,08,17,50,5.30
2019,03,08,17,51,5.30
2019,03,08,17,52,5.30
2019,03,08,17,53,5.30
2019,03,08,17,54,5.20
2019,03,08,17,55,5.20
2019,03,08,17,56,5.20
2019,03,08,17,57,5.20
2019,03,08,17,58,5.20
2019,03,08,17,59,5.20
2019,03,08,18,00,5.10
2019,03,08,18,01,5.10
2019,03,08,18,02,5.10
2019,03,08,18,03,5.10
2019,03,08,18,04,5.00
2019,03,08,18,05,5.00
2019,03,08,18,06,5.00